Home > Weather > Manaus > Past weeks

Flag for Brazil Weather for the Past 2 Weeks in Manaus, Amazonas, Brazil

Now
77 °F

Passing clouds.


Feels Like: 78 °F
Forecast: 76 / 89 °F
Wind: 2 mph from South

Location: Manaus Aeroporto

Current Time: May 6, 2016 at 1:43:30 AM

Latest Report: May 6, 2016 at 1:00 AM


Visibility: N/A

Pressure: 29.89 "Hg

Humidity: 89%

Dew Point: 73 °F

Location of ManausLocation

Historic Weather in Manaus — Graph

°F

Manaus Temperature Yesterday

Maximum temperature yesterday: 82 °F (at 9:00 AM)
Minimum temperature yesterday: 75 °F (at 10:00 AM)
Average temperature yesterday: 78 °F

High & Low Weather Summary for the Past Weeks

 TemperatureHumidityPressure
High90 °F (Apr 22, 1:00 PM)100% (Apr 30, 2:00 AM)30.01 "Hg (Apr 30, 2:00 AM)
Low73 °F (Apr 29, 3:00 AM)59% (Apr 22, 2:00 PM)29.71 "Hg (Apr 24, 5:00 PM)
Average80 °F83%29.87 "Hg
* Reported Midnight between Apr 20 and Apr 21 — Midnight between May 5 and May 6, Manaus, Weather by CustomWeather, © 2016

Note: Actual official high and low records may vary slightly from our data, if they occured in-between our weather recording intervals... More about our weather records

Advertising

Manaus Weather History for the Previous 24 Hours

Scroll right to see more
 ConditionsComfort  
Time TempWeatherWind HumidityBarometerVisibility
12:00 AM
Fri, May 6
77 °FPassing clouds.3 mph89%29.92 "HgN/A
11:00 PM
Thu, May 5
77 °FPassing clouds.3 mph94%29.92 "HgN/A
10:00 PM77 °FPassing clouds.2 mph89%29.92 "HgN/A
9:00 PM77 °FPassing clouds.3 mph89%29.92 "HgN/A
8:00 PM77 °FPassing clouds.5 mph89%29.89 "HgN/A
7:00 PM79 °FPartly cloudy.6 mph84%29.89 "HgN/A
6:00 PM79 °FPartly cloudy.2 mph84%29.86 "HgN/A
5:00 PM79 °FBroken clouds.1 mph84%29.86 "HgN/A
4:00 PM79 °FPartly sunny.5 mph84%29.86 "HgN/A
3:00 PM79 °FBroken clouds.5 mph84%29.86 "HgN/A
2:00 PM79 °FBroken clouds.5 mph84%29.89 "HgN/A
1:00 PM79 °FBroken clouds.No wind84%29.92 "HgN/A
12:00 PM77 °FBroken clouds.2 mph89%29.95 "HgN/A
11:00 AM77 °FThunderstorms. Partly sunny.5 mph94%29.98 "Hg4 mi
10:00 AM75 °FLight rain. Partly sunny.7 mph89%30.01 "Hg1 mi
9:00 AM82 °FPartly sunny.2 mph84%29.98 "HgN/A
8:00 AM81 °FPartly sunny.3 mph84%29.95 "HgN/A
7:00 AM81 °FPartly sunny.3 mph89%29.92 "HgN/A
6:00 AM81 °FBroken clouds.2 mph89%29.92 "HgN/A
5:00 AM77 °FPassing clouds.3 mph89%29.89 "HgN/A
4:00 AM77 °FPassing clouds.3 mph89%29.86 "HgN/A
3:00 AM79 °FPassing clouds.3 mph89%29.86 "HgN/A
2:00 AM79 °FClear.3 mph89%29.89 "Hg10 mi
1:00 AM79 °FClear.3 mph84%29.89 "Hg10 mi
Weather by CustomWeather, © 2016

See weather overviewHow to use our weather pages